timestamp,surface_pressure_avg,surface_temp_avg,battery_voltage,lat,long
2018-08-09 00:00:00+00:00,279.2264,18.42,13.05,47.84626,-54.09684
2018-08-09 00:10:00+00:00,275.8348,18.5,12.97,47.84626,-54.09684
2018-08-09 00:20:00+00:00,270.0164,18.5,13.05,47.84626,-54.09684
2018-08-09 00:30:00+00:00,259.2947,18.54,13.05,47.84626,-54.09684
2018-08-09 00:40:00+00:00,251.1931,18.59,13.05,47.84626,-54.09684
2018-08-09 00:50:00+00:00,249.4264,18.6,13.13,47.84626,-54.09684
2018-08-09 01:00:00+00:00,244.6781,18.6,13.05,47.84626,-54.09684
2018-08-09 01:10:00+00:00,235.8564,18.6,12.97,47.84626,-54.09684
2018-08-09 01:20:00+00:00,232.0531,18.6,13.05,47.84626,-54.09684
2018-08-09 01:30:00+00:00,232.8547,18.6,13.05,47.84626,-54.09684
2018-08-09 01:40:00+00:00,227.1764,18.6,13.05,47.84626,-54.09684
2018-08-09 01:50:00+00:00,220.8297,18.58,13.05,47.84626,-54.09684
2018-08-09 02:00:00+00:00,219.8348,18.57,13.05,47.84626,-54.09684
2018-08-09 02:10:00+00:00,219.1448,18.57,12.97,47.84626,-54.09684
2018-08-09 02:20:00+00:00,213.1681,18.57,13.05,47.84626,-54.09684
2018-08-09 02:30:00+00:00,207.9081,18.58,13.05,47.84626,-54.09684
2018-08-09 02:40:00+00:00,206.7964,18.59,13.05,47.84626,-54.09684
2018-08-09 02:50:00+00:00,206.2747,18.56,13.05,47.84626,-54.09684
2018-08-09 03:00:00+00:00,204.6598,18.52,12.97,47.84626,-54.09684
2018-08-09 03:10:00+00:00,202.2598,18.56,12.97,47.84626,-54.09684
2018-08-09 03:20:00+00:00,200.2714,18.59,12.97,47.84626,-54.09684
2018-08-09 03:30:00+00:00,199.1397,18.6,12.97,47.84626,-54.09684
2018-08-09 03:40:00+00:00,197.5231,18.6,13.05,47.84626,-54.09684
2018-08-09 03:50:00+00:00,197.0465,18.6,13.05,47.84626,-54.09684
2018-08-09 04:00:00+00:00,198.9481,18.6,12.97,47.84626,-54.09684
2018-08-09 04:10:00+00:00,202.6981,18.6,12.89,47.84626,-54.09684
2018-08-09 04:20:00+00:00,204.9698,18.6,12.97,47.84626,-54.09684
2018-08-09 04:30:00+00:00,206.0398,18.6,12.97,47.84626,-54.09684
2018-08-09 04:40:00+00:00,208.9681,18.6,12.97,47.84626,-54.09684
2018-08-09 04:50:00+00:00,212.4981,18.6,12.97,47.84626,-54.09684
2018-08-09 05:00:00+00:00,214.1897,18.6,12.97,47.84626,-54.09684
2018-08-09 05:10:00+00:00,217.6948,18.6,12.89,47.84626,-54.09684
2018-08-09 05:20:00+00:00,224.8665,18.6,12.97,47.84626,-54.09684
2018-08-09 05:30:00+00:00,228.4364,18.58,12.97,47.84626,-54.09684
2018-08-09 05:40:00+00:00,229.4931,18.58,12.97,47.84626,-54.09684
2018-08-09 05:50:00+00:00,234.2681,18.6,12.97,47.84626,-54.09684
2018-08-09 06:00:00+00:00,243.5164,18.6,12.89,47.84626,-54.09684
2018-08-09 06:10:00+00:00,247.5098,18.6,12.81,47.84626,-54.09684
2018-08-09 06:20:00+00:00,250.0014,18.6,12.89,47.84626,-54.09684
2018-08-09 06:30:00+00:00,257.4047,18.69,12.97,47.84626,-54.09684
2018-08-09 06:40:00+00:00,266.9847,18.7,12.97,47.84626,-54.09684
2018-08-09 06:50:00+00:00,271.7864,18.7,12.97,47.84626,-54.09684
2018-08-09 07:00:00+00:00,276.7698,18.7,12.89,47.84626,-54.09684
2018-08-09 07:10:00+00:00,284.123,18.7,12.81,47.84626,-54.09684
2018-08-09 07:20:00+00:00,292.5114,18.7,12.89,47.84626,-54.09684
2018-08-09 07:30:00+00:00,296.3947,18.7,12.89,47.84626,-54.09684
2018-08-09 07:40:00+00:00,301.7596,18.7,12.97,47.84626,-54.09684
2018-08-09 07:50:00+00:00,310.7713,18.7,12.97,47.84626,-54.09684
2018-08-09 08:00:00+00:00,318.828,18.67,12.89,47.84626,-54.09684
2018-08-09 08:10:00+00:00,319.2764,18.7,12.81,47.84626,-54.09684
2018-08-09 08:20:00+00:00,320.4113,18.69,12.89,47.84626,-54.09684
2018-08-09 08:30:00+00:00,326.2747,18.66,12.89,47.84626,-54.09684
2018-08-09 08:40:00+00:00,329.9097,18.69,12.97,47.84626,-54.09684
2018-08-09 08:50:00+00:00,328.9397,18.5,12.97,47.84626,-54.09684
2018-08-09 09:00:00+00:00,329.9046,18.3,12.89,47.84626,-54.09684
2018-08-09 09:10:00+00:00,334.1179,18.3,12.81,47.84626,-54.09684
2018-08-09 09:20:00+00:00,334.1114,18.35,12.89,47.84626,-54.09684
2018-08-09 09:30:00+00:00,332.6046,18.33,12.89,47.84626,-54.09684
2018-08-09 09:40:00+00:00,332.498,18.39,12.97,47.84626,-54.09684
2018-08-09 09:50:00+00:00,333.5631,18.4,12.97,47.84626,-54.09684
2018-08-09 10:00:00+00:00,335.1013,18.4,12.97,47.84626,-54.09684
2018-08-09 10:10:00+00:00,333.2496,18.4,12.89,47.84626,-54.09684
2018-08-09 10:20:00+00:00,332.6697,18.39,12.97,47.84626,-54.09684
2018-08-09 10:30:00+00:00,329.8646,18.3,12.97,47.84626,-54.09684
2018-08-09 10:40:00+00:00,327.1913,18.31,13.05,47.84626,-54.09684
2018-08-09 10:50:00+00:00,323.798,18.38,13.13,47.84626,-54.09684
2018-08-09 11:00:00+00:00,318.8413,18.38,13.13,47.84626,-54.09684
2018-08-09 11:10:00+00:00,316.6964,18.3,13.13,47.84626,-54.09684
2018-08-09 11:20:00+00:00,314.3098,18.31,13.21,47.84626,-54.09684
2018-08-09 11:30:00+00:00,309.8363,18.38,13.29,47.84626,-54.09684
2018-08-09 11:40:00+00:00,302.3896,18.43,13.37,47.84626,-54.09684
2018-08-09 11:50:00+00:00,297.5914,18.5,13.37,47.84626,-54.09684
2018-08-09 12:00:00+00:00,292.1114,18.5,13.37,47.84626,-54.09684
2018-08-09 12:10:00+00:00,282.9481,18.49,13.29,47.84626,-54.09684
2018-08-09 12:20:00+00:00,272.8781,18.5,13.44,47.84626,-54.09684
2018-08-09 12:30:00+00:00,264.6731,18.4,13.53,47.84626,-54.09684
2018-08-09 12:40:00+00:00,258.6131,18.48,13.68,47.84626,-54.09684
2018-08-09 12:50:00+00:00,252.0847,18.52,13.68,47.84626,-54.09684
2018-08-09 13:00:00+00:00,243.4064,18.6,13.84,47.84626,-54.09684
2018-08-09 13:10:00+00:00,237.0298,18.45,13.84,47.84626,-54.09684
2018-08-09 13:20:00+00:00,231.8664,18.4,14.0,47.84626,-54.09684
2018-08-09 13:30:00+00:00,225.6498,18.4,15.6,47.84626,-54.09684
2018-08-09 13:40:00+00:00,219.538,18.34,16.15,47.84626,-54.09684
2018-08-09 13:50:00+00:00,217.3648,18.2,15.91,47.84626,-54.09684
2018-08-09 14:00:00+00:00,215.4481,18.21,14.48,47.84626,-54.09684
2018-08-09 14:10:00+00:00,212.1165,18.3,14.32,47.84626,-54.09684
2018-08-09 14:20:00+00:00,208.8748,18.33,14.48,47.84626,-54.09684
2018-08-09 14:30:00+00:00,208.1947,18.4,14.48,47.84626,-54.09684
2018-08-09 14:40:00+00:00,204.4698,18.46,15.44,47.84626,-54.09684
2018-08-09 14:50:00+00:00,199.5248,18.5,14.48,47.84626,-54.09684
2018-08-09 15:00:00+00:00,198.1847,18.5,14.72,47.84626,-54.09684
2018-08-09 15:10:00+00:00,198.1864,18.38,14.48,47.84626,-54.09684
2018-08-09 15:20:00+00:00,194.2615,18.3,14.64,47.84626,-54.09684
2018-08-09 15:30:00+00:00,192.4464,18.2,14.56,47.84626,-54.09684
2018-08-09 15:40:00+00:00,195.0414,18.0,14.56,47.84626,-54.09684
2018-08-09 15:50:00+00:00,193.1698,18.0,14.56,47.84626,-54.09684
2018-08-09 16:00:00+00:00,191.9764,18.01,14.48,47.84626,-54.09684
2018-08-09 16:10:00+00:00,196.3681,18.0,14.4,47.84626,-54.09684
2018-08-09 16:20:00+00:00,199.7448,17.9,14.48,47.84626,-54.09684
2018-08-09 16:30:00+00:00,202.5814,17.9,14.48,47.84626,-54.09684
2018-08-09 16:40:00+00:00,205.8848,17.9,14.48,47.84626,-54.09684
2018-08-09 16:50:00+00:00,210.8148,17.87,14.4,47.84626,-54.09684
2018-08-09 17:00:00+00:00,215.9748,17.8,14.32,47.84626,-54.09684
2018-08-09 17:10:00+00:00,220.2347,17.8,14.24,47.84626,-54.09684
2018-08-09 17:20:00+00:00,225.1131,17.8,14.4,47.84626,-54.09684
2018-08-09 17:30:00+00:00,229.6497,17.7,14.32,47.84626,-54.09684
2018-08-09 17:40:00+00:00,235.5714,17.6,14.32,47.84626,-54.09684
2018-08-09 17:50:00+00:00,244.0464,17.5,14.32,47.84626,-54.09684
2018-08-09 18:00:00+00:00,253.2364,17.4,14.24,47.84626,-54.09684
2018-08-09 18:10:00+00:00,259.7664,17.39,14.08,47.84626,-54.09684
2018-08-09 18:20:00+00:00,264.5047,17.4,14.16,47.84626,-54.09684
2018-08-09 18:30:00+00:00,272.108,17.41,14.16,47.84626,-54.09684
2018-08-09 18:40:00+00:00,279.7847,17.49,14.08,47.84626,-54.09684
2018-08-09 18:50:00+00:00,285.1848,17.5,14.08,47.84626,-54.09684
2018-08-09 19:00:00+00:00,288.818,17.59,14.0,47.84626,-54.09684
2018-08-09 19:10:00+00:00,297.2681,17.6,13.92,47.84626,-54.09684
2018-08-09 19:20:00+00:00,304.8331,17.6,14.0,47.84626,-54.09684
2018-08-09 19:30:00+00:00,311.138,17.6,14.0,47.84626,-54.09684
2018-08-09 19:40:00+00:00,318.3113,17.59,14.08,47.84626,-54.09684
2018-08-09 19:50:00+00:00,328.7296,17.5,14.08,47.84626,-54.09684
2018-08-09 20:00:00+00:00,339.168,17.4,14.0,47.84626,-54.09684
2018-08-09 20:10:00+00:00,346.5162,17.43,13.84,47.84626,-54.09684
2018-08-09 20:20:00+00:00,350.1396,17.6,13.92,47.84626,-54.09684
2018-08-09 20:30:00+00:00,355.3096,17.66,13.92,47.84626,-54.09684
2018-08-09 20:40:00+00:00,362.0229,17.6,13.92,47.84626,-54.09684
2018-08-09 20:50:00+00:00,365.213,17.5,13.92,47.84626,-54.09684
2018-08-09 21:00:00+00:00,367.4379,17.59,13.84,47.84626,-54.09684
2018-08-09 21:10:00+00:00,370.8913,17.67,13.76,47.84626,-54.09684
2018-08-09 21:20:00+00:00,372.4562,17.7,13.76,47.84626,-54.09684
2018-08-09 21:30:00+00:00,373.5262,17.7,13.68,47.84626,-54.09684
2018-08-09 21:40:00+00:00,374.1763,17.67,13.68,47.84626,-54.09684
2018-08-09 21:50:00+00:00,375.463,17.6,13.68,47.84626,-54.09684
2018-08-09 22:00:00+00:00,377.7412,17.59,13.6,47.84626,-54.09684
2018-08-09 22:10:00+00:00,379.0612,17.55,13.44,47.84626,-54.09684
2018-08-09 22:20:00+00:00,379.7262,17.5,13.44,47.84626,-54.09684
2018-08-09 22:30:00+00:00,378.9296,17.4,13.44,47.84626,-54.09684
2018-08-09 22:40:00+00:00,373.088,17.4,13.37,47.84626,-54.09684
2018-08-09 22:50:00+00:00,372.2863,17.4,13.37,47.84626,-54.09684
2018-08-09 23:00:00+00:00,373.8712,17.4,13.29,47.84626,-54.09684
2018-08-09 23:10:00+00:00,370.648,17.5,13.21,47.84626,-54.09684
2018-08-09 23:20:00+00:00,363.4379,17.5,13.21,47.84626,-54.09684
2018-08-09 23:30:00+00:00,358.8296,17.49,13.21,47.84626,-54.09684
2018-08-09 23:40:00+00:00,354.8029,17.5,13.21,47.84626,-54.09684
2018-08-09 23:50:00+00:00,343.363,17.5,13.21,47.84626,-54.09684
